Temperature
9 9 8 8 8 7 7 7 6 6 6 6 6 6 6 6 5 5 5 5 4 4 4 4 4 3 4 4 4 5 5 5 5 5 5 5 4 3 4 3 3 3 4
7 8 7 7 7 6 6 6 6 6 5 5 5 5 5 4 4 4 4 3 3 3 3 3 3 3 3 3 3 4 4 3 4 4 4 4 4 3 3 3 3 4 4
6 6 6 6 6 5 5 5 5 5 4 4 4 4 4 3 3 3 3 3 3 2 2 2 2 2 2 3 3 3 3 3 3 3 3 4 4 4 3 3 3 3 3
6 6 5 5 5 5 4 4 4 4 4 3 3 3 3 3 3 3 2 2 2 2 2 2 2 2 2 2 2 2 2 2 3 3 3 3 4 3 3 3 3 3 3
5 5 5 4 4 4 4 4 3 3 3 3 3 3 3 3 3 2 2 2 2 2 2 2 2 2 2 2 2 2 2 2 2 3 3 3 3 3 3 3 3 3 3
5 4 4 4 4 4 3 3 3 3 3 3 3 3 3 3 3 2 2 1 1 1 1 1 2 2 1 2 2 2 2 2 2 2 2 2 2 2 2 2 2 2 2
4 4 4 4 4 4 4 3 3 3 3 3 3 2 2 2 2 2 2 2 1 1 1 1 2 2 2 2 2 2 2 2 2 2 2 2 2 2 2 2 2 2 2
4 4 4 4 4 4 4 3 3 3 3 3 2 2 2 2 2 2 2 1 1 1 1 1 1 2 2 2 2 2 2 2 2 2 2 2 2 2 2 2 2 2 2
4 4 4 4 4 4 4 3 3 3 3 3 2 2 2 1 2 2 2 1 1 1 2 2 2 2 2 2 2 2 3 3 2 2 2 2 2 2 2 2 2 2 2
4 4 4 4 4 4 4 3 3 3 3 3 2 2 1 1 2 2 2 1 1 2 2 2 2 2 2 2 2 2 3 3 3 3 3 3 2 2 2 2 2 2 2
4 4 4 4 4 4 4 3 3 3 3 2 2 2 1 1 1 1 1 1 1 2 2 2 2 2 2 2 2 3 3 3 3 3 3 3 3 3 3 2 2 2 2
4 4 4 4 4 4 4 3 3 3 3 3 2 2 2 1 1 1 1 2 2 2 2 2 2 3 3 3 3 3 3 3 3 3 3 3 3 3 3 3 3 2 2
4 4 4 4 4 4 4 4 4 3 3 3 3 3 2 2 1 1 2 2 2 2 2 2 3 3 3 3 3 3 3 4 4 4 4 4 4 3 3 3 3 3 2
5 5 5 4 4 4 4 4 4 4 3 3 3 2 2 2 2 1 2 2 2 2 3 3 3 3 3 3 4 4 4 4 4 4 4 4 4 4 4 4 3 3 3
5 5 5 5 5 4 4 4 3 3 2 2 2 2 2 2 1 2 2 2 2 3 3 3 4 4 4 4 4 4 4 4 4 4 4 4 4 4 4 4 3 3 3
5 5 5 5 5 5 4 3 3 2 2 2 2 2 1 1 2 2 2 2 3 3 3 3 4 4 4 4 4 4 4 4 4 4 4 5 4 5 4 4 4 4 3
5 5 5 5 5 5 4 4 3 3 2 2 2 2 2 2 2 2 2 2 3 3 3 4 4 4 4 4 4 4 4 4 4 4 4 5 5 5 5 4 4 4 4
5 5 5 5 5 5 4 4 4 3 3 2 2 2 2 2 2 2 3 3 3 3 4 4 4 4 4 4 4 4 4 4 5 5 5 5 5 5 5 5 5 4 4
6 6 5 5 5 5 4 4 4 3 3 3 3 2 2 2 2 2 3 3 3 3 3 3 4 4 4 4 4 4 4 4 5 5 5 5 5 5 5 5 5 5 5
5 5 5 5 5 5 4 4 4 3 3 3 3 3 2 3 3 3 3 3 3 3 3 3 3 3 3 4 4 4 4 5 5 5 5 5 5 5 5 5 5 5 5
6 6 5 5 5 5 4 4 4 4 3 3 3 2 2 2 3 3 3 3 3 3 3 3 3 3 3 4 4 4 4 4 4 4 4 5 5 5 5 6 6 6 5
6 6 6 6 5 5 4 4 4 3 3 3 3 2 2 2 3 2 2 2 2 2 2 3 3 3 3 3 3 3 4 4 4 4 4 4 5 5 5 6 5 6 5
6 6 6 5 5 4 4 4 4 3 3 3 3 3 2 2 2 2 2 2 2 2 2 2 3 3 3 3 3 3 3 3 4 4 4 4 5 5 6 6 6 6 5
6 6 6 5 5 5 4 4 4 3 3 3 3 2 2 2 2 2 2 2 2 2 2 2 3 3 3 3 3 3 3 4 4 4 4 4 5 5 5 5 6 6 5
6 6 6 5 5 5 4 4 3 3 3 3 2 2 2 2 2 2 2 2 2 2 2 2 2 3 3 3 3 3 3 3 4 4 4 4 5 5 5 5 5 5 5
6 6 6 5 5 4 4 4 3 3 3 3 2 2 2 2 2 2 2 2 2 2 2 2 2 2 3 3 3 3 3 3 4 4 4 4 5 4 4 5 5 5 5
Wind_Speed
16 16 16 15 14 14 13 13 12 11 11 11 11 10 10 10 9 8 8 8 7 7 6 6 6 7 7 7 6 7 7 8 10 10 9 9 10 12 13 14 15 16 15
15 15 15 14 14 13 13 12 12 11 11 11 10 10 10 9 9 9 8 8 8 8 8 7 7 7 7 7 7 7 7 7 9 11 11 11 12 12 12 13 14 14 14
14 14 14 13 13 12 12 11 11 11 10 10 10 9 9 8 8 8 8 7 7 7 8 8 8 8 8 7 8 8 7 8 9 10 11 10 11 11 12 12 12 11 14
13 14 13 12 11 11 11 10 10 10 9 9 8 8 7 8 8 8 8 7 8 8 8 8 8 8 9 9 8 8 9 10 10 10 10 11 11 11 10 10 11 10 11
12 12 12 11 10 10 10 9 9 8 8 7 7 7 7 7 9 10 9 9 9 9 8 8 7 7 8 8 9 10 11 10 10 10 11 11 11 11 10 10 11 11 12
11 11 10 10 9 9 9 8 7 7 7 6 7 7 7 8 8 9 11 10 9 9 9 9 8 5 5 8 9 10 12 12 12 11 11 11 13 12 11 10 10 11 10
10 10 9 9 8 8 7 7 6 6 6 6 6 7 7 8 7 8 10 11 9 8 9 9 8 7 8 10 10 11 12 12 12 11 12 13 13 12 12 12 11 11 11
9 9 8 7 7 6 6 6 5 5 5 5 6 7 6 7 7 9 14 10 8 8 8 8 9 9 8 11 14 14 12 10 8 9 10 11 11 11 11 12 12 11 12
8 7 7 6 6 5 5 5 5 4 5 5 5 6 6 5 7 10 14 9 8 9 8 7 8 9 8 11 12 13 13 10 7 8 12 15 17 18 14 10 9 9 10
7 6 5 4 4 4 4 4 4 3 4 4 5 6 6 7 6 7 13 8 9 9 8 7 3 6 11 12 11 12 12 12 11 10 9 11 12 12 14 10 8 9 8
5 4 4 3 2 2 2 2 3 3 4 4 4 4 5 5 3 4 9 8 9 10 8 8 7 9 13 13 12 10 10 12 12 10 8 8 6 5 4 5 6 7 8
4 3 2 2 2 2 1 1 2 3 3 3 4 4 4 3 4 5 7 8 9 9 8 8 9 13 15 15 11 9 13 13 8 7 7 7 7 6 6 6 6 7 7
2 2 2 2 1 2 2 2 2 2 4 4 5 5 5 5 2 2 6 9 10 8 8 9 12 15 14 10 8 12 11 7 7 7 8 7 7 7 6 5 5 6 7
1 1 1 1 1 1 2 3 4 4 5 5 5 5 5 5 7 9 9 8 7 7 8 8 10 12 9 7 7 6 5 6 7 8 8 7 7 6 5 6 6 7 6
1 1 2 1 1 1 2 4 5 6 6 6 6 6 7 7 8 11 9 9 10 10 11 8 7 8 8 8 8 8 7 7 7 8 8 8 8 7 6 6 6 6 6
2 2 1 1 1 0 2 4 5 4 4 2 4 6 5 5 10 12 12 12 13 14 10 7 8 9 9 10 10 10 9 9 10 9 9 9 9 8 8 7 6 6 7
2 2 2 1 0 0 1 1 3 5 5 4 2 2 5 8 8 11 13 14 14 13 6 8 9 9 10 10 10 10 10 10 10 10 10 10 10 9 9 8 8 8 7
2 0 2 0 1 1 1 2 2 2 2 3 6 4 3 4 6 9 13 12 4 4 7 8 9 9 9 10 10 10 10 10 10 11 10 10 10 10 9 9 9 10 8
2 1 1 1 0 1 1 2 2 3 3 3 2 4 3 5 8 9 9 6 8 8 8 8 8 9 9 10 10 10 10 10 11 11 10 11 10 10 10 10 9 8 8
1 2 2 1 1 1 1 2 2 2 2 3 3 5 4 3 3 4 5 7 8 8 9 9 8 9 10 10 10 10 11 11 12 11 11 11 10 10 10 11 10 10 9
1 3 5 3 1 1 1 2 2 2 3 3 4 5 6 5 5 6 7 7 8 8 9 9 9 9 10 10 11 12 13 12 12 12 11 11 11 10 10 10 10 10 10
2 1 1 1 2 2 2 2 2 2 3 3 3 3 2 3 5 6 7 7 7 7 8 8 8 8 9 10 10 11 12 12 12 12 12 12 11 10 10 10 10 10 12
1 0 1 2 2 3 1 1 2 3 3 3 3 3 4 5 5 6 6 7 7 8 9 9 9 10 12 12 12 11 11 12 12 13 12 11 11 10 9 10 11 11 11
1 1 2 3 2 2 2 2 2 3 3 3 3 4 4 5 5 6 6 7 8 8 9 9 10 12 15 14 13 13 14 16 16 14 14 11 11 10 10 10 10 12 11
2 2 2 3 2 2 3 2 3 3 2 3 3 3 4 4 5 6 6 7 8 8 10 10 10 12 15 15 16 17 21 21 18 16 14 10 10 11 11 10 10 10 11
3 3 2 3 3 3 2 2 3 2 2 2 3 3 4 4 5 6 6 7 8 8 9 9 12 13 15 15 18 21 23 23 23 23 16 10 9 10 11 10 11 10 11
Wind_Direction
79 81 83 84 86 88 89 90 89 86 83 79 76 73 67 60 53 48 43 37 28 21 8 1 351 340 329 320 313 306 304 302 298 301 304 304 302 298 302 301 296 292 287
85 85 84 85 86 87 86 87 87 84 81 79 75 70 65 59 51 43 34 28 19 10 0 349 341 334 327 314 317 310 307 304 296 301 303 303 301 299 298 298 296 296 297
88 88 87 86 86 87 87 86 84 82 79 75 71 66 59 53 47 38 28 19 10 1 352 343 337 332 325 328 316 310 308 304 298 296 298 302 299 301 302 297 299 300 297
91 89 87 86 86 87 87 85 83 82 79 72 66 60 52 44 34 22 15 8 359 353 346 338 335 334 332 327 315 314 313 309 303 299 300 303 304 307 307 306 306 307 308
94 93 91 92 92 91 89 85 81 77 72 65 57 51 41 41 30 9 356 356 350 345 342 338 338 336 331 323 320 323 318 312 309 307 306 307 309 315 314 314 310 310 307
97 96 96 96 94 91 88 85 79 70 61 53 45 35 31 39 37 8 346 341 339 340 340 336 328 311 331 294 287 294 297 299 308 307 304 304 307 310 312 310 310 308 309
101 99 99 97 93 91 88 80 70 61 52 42 33 24 25 49 32 2 343 325 330 339 335 333 332 342 324 332 317 291 278 259 263 284 292 298 304 309 312 310 309 307 303
104 102 99 97 93 86 77 68 57 47 39 32 23 16 15 48 35 359 334 316 330 334 333 331 331 331 350 341 321 312 310 307 289 280 292 298 300 306 307 302 301 299 297
104 101 96 91 87 79 68 58 45 33 26 20 25 14 10 42 41 358 335 326 340 340 337 338 333 332 11 336 313 309 315 321 304 267 274 277 280 280 281 295 304 307 314
104 99 92 82 70 62 54 38 35 18 11 6 21 13 10 15 45 1 338 336 346 341 339 340 360 343 332 318 311 312 319 326 324 314 286 271 268 262 248 262 298 310 319
106 98 88 72 57 44 35 25 5 358 6 2 5 10 19 17 46 27 345 342 343 335 336 340 349 348 324 314 302 299 310 309 306 309 310 314 317 313 301 292 302 305 313
109 100 81 46 16 31 14 353 346 336 334 359 6 10 26 32 26 12 325 310 309 320 327 334 336 328 314 304 302 307 300 294 299 315 323 329 332 336 333 325 316 308 302
110 72 39 17 3 356 335 338 330 332 346 5 8 14 16 11 42 237 289 290 285 302 321 309 297 295 295 294 270 281 291 305 326 331 335 334 333 332 321 317 315 315 314
83 27 346 337 359 72 340 353 358 5 6 13 14 9 5 10 15 3 347 338 324 322 331 307 277 271 275 300 310 313 324 338 337 333 332 331 333 337 337 343 344 343 343
308 319 316 341 71 85 64 36 17 45 34 5 7 3 1 5 7 341 326 334 335 333 322 322 355 3 3 5 360 357 352 350 347 344 339 340 346 350 353 352 350 351 354
286 288 310 357 42 344 116 124 79 52 93 56 4 343 3 13 334 323 318 313 304 301 310 356 8 5 6 2 357 355 357 358 353 348 348 350 351 354 0 0 357 357 0
308 318 311 331 2 47 39 78 129 151 181 187 197 308 330 335 324 320 319 313 293 290 328 11 8 4 2 360 356 355 355 355 352 351 354 356 357 357 3 5 6 4 6
286 183 276 302 23 52 57 51 42 50 103 146 175 191 262 295 301 309 311 311 337 357 14 9 4 2 359 358 357 355 353 353 356 355 358 358 358 358 2 7 12 8 4
304 350 1 28 74 73 58 52 53 43 36 39 72 137 211 247 241 262 296 357 14 13 10 7 3 359 357 355 354 353 351 353 357 357 0 357 356 356 2 5 9 9 360
219 71 308 266 163 119 81 48 45 38 40 43 41 26 7 352 13 18 15 16 11 10 5 1 358 356 356 354 354 356 355 357 358 358 358 356 355 356 359 3 4 8 13
266 150 191 231 178 95 67 52 39 33 45 50 55 48 337 345 19 20 17 15 11 4 1 353 350 357 359 356 358 358 357 359 0 357 355 353 354 357 359 5 6 9 12
298 279 188 120 115 97 68 60 50 51 53 51 60 102 260 332 22 21 17 14 9 4 1 354 351 359 360 355 354 353 356 359 358 354 349 349 352 359 4 9 12 14 16
260 167 139 131 122 132 181 78 65 63 59 53 43 36 32 26 24 21 16 13 8 6 3 360 357 2 1 356 352 352 357 353 344 338 339 344 352 1 8 11 14 16 22
92 130 135 129 133 137 109 96 82 71 63 51 44 36 29 26 24 20 13 13 10 10 8 6 5 5 3 3 360 2 3 347 335 330 333 338 352 1 6 9 13 15 15
96 113 119 117 117 110 104 99 88 82 71 54 41 33 28 24 23 22 18 14 11 14 12 13 9 9 6 8 8 2 353 350 345 337 328 340 1 6 2 7 10 14 15
94 102 104 107 103 93 99 107 99 88 76 58 40 30 27 25 24 21 20 15 10 14 13 14 11 14 13 8 4 359 358 356 352 344 332 345 6 14 360 1 7 12 15
Height
1539 1540 1541 1543 1545 1547 1548 1549 1550 1551 1552 1553 1553 1553 1553 1552 1552 1551 1551 1549 1548 1547 1546 1545 1543 1541 1541 1539 1538 1536 1535 1533 1530 1527 1525 1523 1519 1516 1514 1511 1508 1505 1502
1545 1545 1546 1548 1550 1551 1552 1553 1554 1554 1555 1555 1555 1555 1554 1554 1553 1552 1551 1549 1548 1547 1545 1544 1542 1540 1538 1537 1535 1533 1532 1530 1527 1524 1522 1519 1516 1513 1510 1506 1503 1500 1498
1550 1550 1551 1553 1554 1555 1555 1556 1556 1557 1557 1557 1557 1556 1556 1555 1554 1553 1551 1550 1548 1546 1544 1542 1540 1538 1536 1534 1532 1531 1529 1527 1524 1522 1518 1515 1512 1509 1506 1502 1499 1495 1492
1554 1555 1555 1556 1557 1558 1559 1559 1559 1559 1559 1559 1558 1558 1557 1557 1555 1554 1552 1550 1548 1546 1543 1541 1539 1537 1534 1532 1531 1528 1526 1524 1522 1519 1515 1512 1509 1506 1502 1498 1495 1492 1488
1557 1558 1558 1559 1561 1561 1561 1562 1561 1561 1561 1561 1560 1560 1559 1557 1554 1552 1551 1549 1547 1545 1542 1540 1537 1534 1532 1530 1528 1526 1524 1521 1519 1516 1512 1509 1506 1502 1499 1494 1491 1487 1484
1560 1561 1562 1563 1563 1564 1564 1564 1564 1563 1563 1562 1562 1561 1559 1557 1553 1551 1549 1547 1545 1543 1541 1538 1536 1534 1531 1528 1526 1523 1521 1518 1516 1513 1509 1506 1502 1499 1495 1491 1488 1484 1480
1563 1564 1565 1566 1566 1567 1567 1567 1566 1565 1564 1563 1562 1561 1559 1556 1553 1550 1547 1545 1544 1542 1539 1537 1535 1533 1530 1528 1524 1521 1518 1516 1513 1510 1506 1502 1499 1496 1492 1488 1485 1481 1477
1566 1567 1568 1568 1569 1569 1568 1568 1567 1566 1565 1564 1562 1560 1558 1555 1552 1549 1546 1544 1543 1541 1538 1536 1533 1531 1528 1525 1521 1518 1516 1513 1510 1506 1504 1500 1497 1493 1490 1487 1483 1479 1475
1569 1569 1570 1570 1570 1570 1570 1569 1568 1567 1565 1564 1562 1560 1558 1555 1551 1548 1545 1544 1543 1540 1538 1535 1532 1530 1527 1523 1520 1517 1513 1510 1508 1504 1501 1497 1494 1490 1487 1484 1481 1477 1473
1571 1571 1571 1571 1571 1571 1570 1569 1568 1567 1565 1564 1562 1559 1557 1554 1551 1548 1545 1544 1542 1540 1537 1534 1532 1529 1526 1523 1519 1516 1512 1509 1506 1502 1499 1495 1492 1489 1485 1482 1479 1476 1472
1572 1572 1572 1572 1572 1571 1570 1569 1568 1567 1565 1563 1561 1559 1556 1553 1551 1548 1546 1543 1541 1539 1537 1535 1532 1529 1525 1522 1519 1515 1512 1508 1504 1501 1497 1494 1491 1488 1485 1482 1478 1475 1471
1573 1573 1573 1572 1572 1571 1570 1569 1568 1566 1565 1563 1561 1560 1557 1555 1552 1549 1547 1544 1542 1539 1537 1535 1532 1528 1525 1522 1518 1515 1511 1508 1504 1501 1497 1494 1490 1487 1484 1480 1477 1473 1469
1574 1574 1573 1573 1572 1571 1570 1569 1567 1566 1565 1563 1562 1560 1558 1556 1553 1550 1548 1545 1543 1540 1538 1534 1531 1528 1524 1521 1518 1515 1511 1508 1504 1501 1497 1493 1490 1486 1483 1479 1476 1472 1469
1574 1574 1573 1572 1571 1570 1569 1569 1567 1566 1564 1563 1561 1560 1558 1556 1554 1551 1548 1546 1544 1541 1538 1535 1531 1528 1525 1522 1519 1515 1511 1508 1504 1501 1497 1493 1489 1486 1483 1479 1476 1472 1469
1574 1573 1573 1572 1571 1570 1569 1568 1567 1565 1563 1562 1561 1559 1558 1556 1553 1551 1548 1546 1543 1541 1537 1535 1533 1529 1526 1523 1519 1516 1512 1509 1505 1501 1497 1493 1490 1486 1483 1479 1476 1472 1469
1573 1573 1572 1571 1570 1569 1568 1567 1565 1564 1562 1561 1559 1558 1557 1555 1553 1551 1549 1547 1544 1541 1539 1537 1534 1531 1527 1524 1520 1517 1513 1510 1506 1502 1498 1494 1490 1487 1483 1480 1476 1473 1470
1572 1572 1571 1570 1570 1569 1568 1567 1566 1564 1563 1561 1560 1558 1557 1555 1554 1552 1550 1548 1546 1543 1541 1539 1536 1532 1529 1526 1522 1519 1515 1511 1507 1503 1499 1495 1492 1488 1485 1481 1478 1474 1471
1572 1571 1570 1570 1569 1568 1568 1567 1566 1565 1564 1563 1561 1559 1557 1556 1554 1553 1551 1549 1548 1545 1543 1540 1537 1534 1531 1528 1524 1520 1516 1513 1509 1505 1501 1497 1494 1490 1486 1483 1480 1476 1473
1571 1570 1570 1569 1568 1568 1567 1567 1566 1565 1564 1563 1562 1561 1559 1557 1555 1554 1552 1551 1549 1547 1544 1542 1539 1536 1533 1529 1526 1522 1518 1515 1511 1507 1503 1499 1496 1492 1489 1485 1482 1478 1475
1570 1569 1569 1568 1568 1567 1567 1566 1566 1565 1564 1564 1563 1562 1560 1558 1557 1556 1554 1552 1550 1548 1545 1543 1540 1537 1534 1531 1527 1524 1520 1517 1513 1509 1505 1502 1498 1494 1491 1487 1484 1480 1477
1569 1568 1567 1567 1567 1567 1567 1566 1566 1565 1565 1564 1563 1561 1559 1559 1558 1556 1554 1553 1550 1548 1546 1543 1541 1538 1535 1532 1529 1525 1522 1518 1515 1511 1507 1504 1500 1497 1493 1490 1486 1483 1480
1568 1567 1567 1567 1567 1567 1567 1566 1566 1565 1565 1564 1563 1562 1560 1560 1558 1557 1555 1553 1551 1548 1546 1543 1542 1539 1536 1533 1530 1527 1524 1520 1516 1512 1509 1506 1502 1499 1496 1493 1489 1486 1483
1567 1567 1567 1567 1567 1566 1567 1566 1566 1566 1565 1564 1564 1563 1562 1560 1559 1557 1555 1553 1551 1549 1546 1544 1542 1540 1537 1534 1531 1528 1525 1521 1517 1513 1510 1508 1505 1502 1498 1495 1492 1489 1486
1567 1566 1566 1566 1567 1567 1567 1566 1566 1566 1565 1565 1564 1563 1562 1561 1559 1558 1556 1554 1552 1550 1547 1545 1542 1540 1537 1534 1531 1529 1525 1521 1518 1514 1512 1510 1507 1504 1501 1498 1495 1492 1489
1566 1566 1566 1566 1567 1567 1567 1567 1566 1566 1566 1565 1565 1564 1563 1561 1560 1558 1557 1555 1553 1550 1548 1545 1543 1540 1538 1535 1532 1529 1525 1522 1519 1515 1513 1512 1509 1506 1503 1500 1497 1495 1492
1567 1566 1566 1567 1567 1567 1567 1567 1567 1566 1566 1566 1565 1564 1563 1562 1560 1559 1557 1555 1553 1551 1548 1546 1544 1541 1538 1535 1532 1529 1526 1523 1520 1517 1514 1513 1511 1507 1505 1502 1500 1497 1494